When you browse on this site, cookies collect data to enhance your experience and personalize the content and advertising you see.
Visit our Privacy Policy to learn more. By continuing to use the site, you agree to this use of cookies and data.
  • In United Kingdom
  • List of Countries
  • For 7 days
  • Water Temperature
  • Satellite Maps
  • Weather Map
  • Weather Widgets
  • user-avatar
    Login

    Hourly Weather Guildford

    Today, 18 June, Tuesday

    Time Temperature Precipitation Wind Pressure Humidity
    00:00 +11°C° 0 mm 1 mps 754 mmHg 90%
    01:00 +11°C° 0 mm 1 mps 754 mmHg 90%
    02:00 +10°C° 0 mm 1 mps 753 mmHg 90%
    03:00 +9°C° 0 mm 0 mps 753 mmHg 89%
    04:00 +10°C° 0 mm 0 mps 753 mmHg 87%
    05:00 +11°C° 0 mm 0 mps 753 mmHg 85%
    06:00 +12°C° 0 mm 0 mps 753 mmHg 83%
    07:00 +14°C° 0.3 mm 1 mps 753 mmHg 84%
    08:00 +14°C° 0.3 mm 1 mps 753 mmHg 85%
    09:00 +15°C° 0.3 mm 1 mps 753 mmHg 86%
    10:00 +15°C° 0.2 mm 1 mps 752 mmHg 85%
    11:00 +16°C° 0.2 mm 1 mps 752 mmHg 84%
    12:00 +19°C° 0 mm 1 mps 752 mmHg 74%
    13:00 +19°C° 0.7 mm 1 mps 752 mmHg 79%
    14:00 +19°C° 0.7 mm 1 mps 751 mmHg 84%
    15:00 +16°C° 0.7 mm 0 mps 750 mmHg 89%
    16:00 +18°C° 0.9 mm 1 mps 750 mmHg 90%
    17:00 +18°C° 0.9 mm 1 mps 750 mmHg 91%
    18:00 +19°C° 0.9 mm 1 mps 750 mmHg 92%
    19:00 +18°C° 0 mm 1 mps 750 mmHg 93%
    20:00 +16°C° 0 mm 1 mps 749 mmHg 94%
    21:00 +15°C° 0 mm 1 mps 749 mmHg 95%
    22:00 +15°C° 0 mm 1 mps 749 mmHg 95%
    23:00 +14°C° 0 mm 1 mps 748 mmHg 95%

    Tomorrow, 19 June, Wednesday

    Time Temperature Precipitation Wind Pressure Humidity
    00:00 +14°C° 0 mm 1 mps 748 mmHg 95%
    01:00 +14°C° 0 mm 2 mps 747 mmHg 95%
    02:00 +14°C° 0 mm 2 mps 747 mmHg 96%
    03:00 +13°C° 0 mm 2 mps 747 mmHg 96%
    04:00 +13°C° 0.1 mm 3 mps 746 mmHg 95%
    05:00 +13°C° 0.1 mm 3 mps 746 mmHg 95%
    06:00 +14°C° 0.1 mm 4 mps 746 mmHg 95%
    07:00 +16°C° 0.1 mm 3 mps 746 mmHg 93%
    08:00 +17°C° 0.1 mm 3 mps 747 mmHg 91%
    09:00 +18°C° 0.1 mm 3 mps 747 mmHg 89%
    10:00 +18°C° 0 mm 3 mps 747 mmHg 85%
    11:00 +19°C° 0 mm 3 mps 747 mmHg 82%
    12:00 +19°C° 0 mm 3 mps 748 mmHg 78%
    13:00 +19°C° 0.5 mm 3 mps 748 mmHg 79%
    14:00 +19°C° 0.5 mm 3 mps 748 mmHg 81%
    15:00 +19°C° 0.5 mm 3 mps 748 mmHg 83%
    16:00 +19°C° 0.4 mm 3 mps 748 mmHg 84%
    17:00 +18°C° 0.4 mm 3 mps 748 mmHg 84%
    18:00 +18°C° 0.4 mm 4 mps 748 mmHg 85%
    19:00 +16°C° 0.1 mm 3 mps 748 mmHg 88%
    20:00 +14°C° 0.1 mm 3 mps 749 mmHg 90%
    21:00 +13°C° 0.1 mm 3 mps 749 mmHg 92%
    22:00 +11°C° 0 mm 3 mps 749 mmHg 92%
    23:00 +10°C° 0 mm 3 mps 749 mmHg 92%

    Day after tomorrow, 20 June, Thursday

    Time Temperature Precipitation Wind Pressure Humidity
    00:00 +9°C° 0 mm 3 mps 749 mmHg 92%
    01:00 +9°C° 0 mm 2 mps 749 mmHg 92%
    02:00 +8°C° 0 mm 2 mps 750 mmHg 92%
    03:00 +8°C° 0 mm 2 mps 750 mmHg 93%
    04:00 +9°C° 0 mm 3 mps 750 mmHg 93%
    05:00 +10°C° 0 mm 3 mps 750 mmHg 92%
    06:00 +11°C° 0 mm 4 mps 750 mmHg 92%
    07:00 +12°C° 0 mm 4 mps 751 mmHg 87%
    08:00 +14°C° 0 mm 4 mps 751 mmHg 82%
    09:00 +15°C° 0 mm 4 mps 751 mmHg 77%
    10:00 +17°C° 0.2 mm 4 mps 751 mmHg 75%
    11:00 +16°C° 0.2 mm 5 mps 752 mmHg 74%
    12:00 +17°C° 0.2 mm 5 mps 752 mmHg 72%
    13:00 +16°C° 0.3 mm 5 mps 752 mmHg 74%
    14:00 +16°C° 0.3 mm 5 mps 752 mmHg 77%
    15:00 +15°C° 0.3 mm 6 mps 752 mmHg 79%
    16:00 +15°C° 0 mm 5 mps 752 mmHg 79%
    17:00 +15°C° 0 mm 5 mps 752 mmHg 79%
    18:00 +15°C° 0 mm 4 mps 752 mmHg 79%
    19:00 +14°C° 0 mm 4 mps 753 mmHg 83%
    20:00 +12°C° 0 mm 3 mps 753 mmHg 87%
    21:00 +11°C° 0 mm 3 mps 753 mmHg 91%
    22:00 +10°C° 0 mm 3 mps 753 mmHg 91%
    23:00 +9°C° 0 mm 3 mps 754 mmHg 91%

    21 June, Friday

    Time Temperature Precipitation Wind Pressure Humidity
    00:00 +8°C° 0 mm 3 mps 754 mmHg 92%
    01:00 +8°C° 0 mm 3 mps 754 mmHg 92%
    02:00 +7°C° 0 mm 3 mps 754 mmHg 93%
    03:00 +7°C° 0 mm 2 mps 754 mmHg 93%
    04:00 +8°C° 0 mm 3 mps 754 mmHg 91%
    05:00 +9°C° 0 mm 3 mps 755 mmHg 89%
    06:00 +10°C° 0 mm 3 mps 755 mmHg 87%
    07:00 +11°C° 0 mm 3 mps 755 mmHg 82%
    08:00 +13°C° 0 mm 3 mps 755 mmHg 77%
    09:00 +14°C° 0 mm 3 mps 756 mmHg 71%
    10:00 +16°C° 0.1 mm 3 mps 756 mmHg 69%
    11:00 +16°C° 0.1 mm 3 mps 756 mmHg 68%
    12:00 +17°C° 0.1 mm 3 mps 756 mmHg 66%
    13:00 +17°C° 0.1 mm 3 mps 756 mmHg 65%
    14:00 +17°C° 0.1 mm 3 mps 756 mmHg 64%
    15:00 +18°C° 0.1 mm 3 mps 756 mmHg 63%
    16:00 +17°C° 0.1 mm 3 mps 756 mmHg 66%
    17:00 +17°C° 0.1 mm 3 mps 756 mmHg 69%
    18:00 +17°C° 0.1 mm 2 mps 756 mmHg 73%
    19:00 +15°C° 0 mm 2 mps 757 mmHg 77%
    20:00 +13°C° 0 mm 2 mps 757 mmHg 81%
    21:00 +12°C° 0 mm 2 mps 757 mmHg 86%
    22:00 +10°C° 0 mm 2 mps 757 mmHg 87%
    23:00 +10°C° 0 mm 1 mps 758 mmHg 88%

    22 June, Saturday

    Time Temperature Precipitation Wind Pressure Humidity
    00:00 +10°C° 0 mm 1 mps 758 mmHg 89%
    01:00 +9°C° 0 mm 1 mps 757 mmHg 89%
    02:00 +9°C° 0 mm 1 mps 757 mmHg 89%
    03:00 +8°C° 0 mm 0 mps 757 mmHg 90%
    04:00 +9°C° 0 mm 0 mps 757 mmHg 88%
    05:00 +10°C° 0 mm 0 mps 757 mmHg 86%
    06:00 +11°C° 0 mm 0 mps 758 mmHg 85%
    07:00 +12°C° 0 mm 0 mps 758 mmHg 79%
    08:00 +15°C° 0 mm 1 mps 758 mmHg 73%
    09:00 +18°C° 0 mm 1 mps 758 mmHg 67%
    10:00 +18°C° 0 mm 1 mps 758 mmHg 66%
    11:00 +19°C° 0 mm 1 mps 758 mmHg 64%
    12:00 +18°C° 0 mm 2 mps 758 mmHg 62%
    13:00 +19°C° 0 mm 2 mps 757 mmHg 61%
    14:00 +20°C° 0 mm 1 mps 757 mmHg 61%
    15:00 +20°C° 0 mm 1 mps 757 mmHg 60%
    16:00 +20°C° 0 mm 1 mps 757 mmHg 64%
    17:00 +19°C° 0 mm 1 mps 757 mmHg 67%
    18:00 +19°C° 0 mm 1 mps 757 mmHg 71%
    19:00 +16°C° 0 mm 1 mps 757 mmHg 75%
    20:00 +15°C° 0 mm 1 mps 757 mmHg 80%
    21:00 +13°C° 0 mm 1 mps 757 mmHg 84%
    22:00 +12°C° 0 mm 1 mps 757 mmHg 85%
    23:00 +12°C° 0 mm 1 mps 757 mmHg 86%

    23 June, Sunday

    Time Temperature Precipitation Wind Pressure Humidity
    00:00 +12°C° 0 mm 1 mps 757 mmHg 86%
    01:00 +11°C° 0 mm 1 mps 757 mmHg 87%
    02:00 +10°C° 0 mm 2 mps 757 mmHg 87%
    03:00 +10°C° 0 mm 2 mps 756 mmHg 87%
    04:00 +12°C° 0 mm 2 mps 756 mmHg 86%
    05:00 +13°C° 0 mm 2 mps 756 mmHg 84%
    06:00 +12°C° 0 mm 3 mps 756 mmHg 83%
    07:00 +14°C° 0 mm 4 mps 756 mmHg 79%
    08:00 +15°C° 0 mm 4 mps 757 mmHg 75%
    09:00 +17°C° 0 mm 5 mps 757 mmHg 71%
    10:00 +19°C° 0 mm 5 mps 756 mmHg 69%
    11:00 +19°C° 0 mm 5 mps 756 mmHg 67%
    12:00 +20°C° 0 mm 5 mps 756 mmHg 65%
    13:00 +20°C° 0 mm 5 mps 756 mmHg 66%
    14:00 +21°C° 0 mm 5 mps 756 mmHg 67%
    15:00 +21°C° 0 mm 5 mps 755 mmHg 68%
    16:00 +20°C° 0 mm 5 mps 755 mmHg 72%
    17:00 +19°C° 0 mm 5 mps 755 mmHg 75%
    18:00 +17°C° 0 mm 6 mps 755 mmHg 78%
    19:00 +16°C° 0 mm 5 mps 755 mmHg 76%
    20:00 +16°C° 0 mm 5 mps 755 mmHg 74%
    21:00 +16°C° 0 mm 5 mps 755 mmHg 72%
    22:00 +16°C° 0 mm 5 mps 755 mmHg 73%
    23:00 +16°C° 0 mm 6 mps 754 mmHg 75%
    Show more